User: anonymous   Login
Location: Asheville, NC
(35.6000°N, 82.5500°W)
Time: 03:44:36
(UTC-04:00)
Language:

CUTE-I - Orbit

View from above orbital plane
View from above orbital plane
View from above satellite
View from above satellite

Ground track
Ground track

The orbit data is extracted from the following two-line orbital elements,

1 27844U 03031E   18110.96859469 +.00000056 +00000-0 +45107-4 0  9991
2 27844 098.6885 120.4652 0009963 170.3605 189.7766 14.22106845768020
Epoch (UTC): 20 April 2018 23:14:46
Eccentricity: 0.0009963
inclination: 98.6885°
perigee height: 811 km
apogee height: 825 km
right ascension of ascending node: 120.4652°
argument of perigee: 170.3605°
revolutions per day: 14.22106845
mean anomaly at epoch: 189.7766°
orbit number at epoch: 76802

The dashed part of the orbit path shows where the satellite is in the earth's shadow,  

DLR